TimeEDT,TemperatureF,Dew PointF,Humidity,Sea Level PressureIn,VisibilityMPH,Wind Direction,Wind SpeedMPH,Gust SpeedMPH,PrecipitationIn,Events,Conditions,WindDirDegrees,DateUTC
12:53 AM,64.9,62.1,90,30.07,9.0,South,3.5,-,N/A,,Clear,190,2013-10-04 04:53:00
1:53 AM,64.9,62.1,90,30.08,10.0,SSW,4.6,-,N/A,,Clear,210,2013-10-04 05:53:00
2:53 AM,62.1,60.1,93,30.08,7.0,Calm,Calm,-,N/A,,Clear,0,2013-10-04 06:53:00
3:53 AM,61.0,59.0,93,30.07,4.0,Calm,Calm,-,N/A,,Clear,0,2013-10-04 07:53:00
4:53 AM,62.1,60.1,93,30.08,9.0,SSW,4.6,-,N/A,,Clear,200,2013-10-04 08:53:00
5:53 AM,62.1,59.0,90,30.08,9.0,SSW,3.5,-,N/A,,Clear,200,2013-10-04 09:53:00
6:53 AM,60.1,57.9,93,30.09,6.0,Calm,Calm,-,N/A,,Clear,0,2013-10-04 10:53:00
7:18 AM,59.0,57.2,94,30.12,2.0,Calm,Calm,-,N/A,,Clear,0,2013-10-04 11:18:00
7:32 AM,59.0,57.2,94,30.13,3.0,Calm,Calm,-,N/A,,Clear,0,2013-10-04 11:32:00
7:53 AM,60.1,59.0,96,30.11,5.0,Calm,Calm,-,N/A,,Clear,0,2013-10-04 11:53:00
8:53 AM,66.0,62.1,87,30.12,10.0,WSW,5.8,-,N/A,,Clear,240,2013-10-04 12:53:00
9:53 AM,71.1,62.1,73,30.12,10.0,WSW,6.9,-,N/A,,Clear,240,2013-10-04 13:53:00
10:53 AM,75.9,64.0,67,30.12,10.0,SW,3.5,-,N/A,,Clear,220,2013-10-04 14:53:00
11:53 AM,81.0,64.0,56,30.11,10.0,Variable,3.5,-,N/A,,Clear,0,2013-10-04 15:53:00
12:53 PM,84.0,64.9,53,30.09,10.0,Variable,4.6,-,N/A,,Clear,0,2013-10-04 16:53:00
1:53 PM,84.9,62.1,46,30.06,10.0,Variable,3.5,-,N/A,,Partly Cloudy,0,2013-10-04 17:53:00
2:53 PM,87.1,61.0,41,30.05,10.0,Calm,Calm,-,N/A,,Scattered Clouds,0,2013-10-04 18:53:00
3:53 PM,88.0,61.0,40,30.04,10.0,WNW,6.9,-,N/A,,Clear,300,2013-10-04 19:53:00
4:53 PM,87.1,60.1,40,30.04,10.0,WNW,3.5,-,N/A,,Clear,290,2013-10-04 20:53:00
5:53 PM,84.9,62.1,46,30.04,10.0,Calm,Calm,-,N/A,,Clear,0,2013-10-04 21:53:00
6:53 PM,75.9,64.9,69,30.05,10.0,Calm,Calm,-,N/A,,Clear,0,2013-10-04 22:53:00
7:53 PM,71.1,64.0,78,30.06,10.0,Calm,Calm,-,N/A,,Clear,0,2013-10-04 23:53:00
8:53 PM,69.1,63.0,81,30.07,10.0,Calm,Calm,-,N/A,,Clear,0,2013-10-05 00:53:00
9:53 PM,68.0,64.0,87,30.08,10.0,SW,3.5,-,N/A,,Clear,230,2013-10-05 01:53:00
10:53 PM,66.0,64.0,93,30.08,10.0,SW,3.5,-,N/A,,Clear,220,2013-10-05 02:53:00
11:53 PM,64.9,63.0,93,30.08,7.0,Calm,Calm,-,N/A,,Clear,0,2013-10-05 03:53:00